SCP
0 0 0 0 0 0 0 0 0 0 0 0 0 0 0 0 0 0 0 0 0 0 0 0 0 0 0 0 0 0 0 0 0 0 0 0 0 0 0 0 0 0 0 0
0 0 0 0 0 0 0 0 0 0 0 0 0 0 0 0 0 0 0 0 0 0 0 0 0 0 0 0 0 0 0 0 0 0 0 0 0 0 0 0 0 0 0 0
0 0 0 0 0 0 0 0 0 0 0 0 0 0 0 0 0 0 0 0 0 0 0 0 0 0 0 0 0 0 0 0 0 0 0 0 0 0 0 0 0 0 0 0
0 0 0 0 0 0 0 0 0 0 0 0 0 0 0 0 0 0 0 0 0 0 0 0 0 0 0 0 0 0 0 0 0 0 0 0 0 0 0 0 0 0 0 0
0 0 0 0 0 0 0 0 0 0 0 0 0 0 0 0 0 0 0 0 0 0 0 0 0 0 0 0 0 0 0 0 0 0 0 0 0 0 0 0 0 0 0 0
0 0 0 0 0 0 0 0 0 0 0 0 0 0 0 0 0 0 0 0 0 0 0 0 0 0 0 0 0 0 0 0 0 0 0 0 0 0 0 0 0 0 0 0
0 0 0 0 0 0 0 0 0 0 0 0 0 0 0 0 0 0 0 0 0 0 0 0 0 0 0 0 0 0 0 0 0 0 0 0 0 0 0 0 0 0 0 0
0 0 0 0 0 0 0 0 0 0 0 0 0 0 0 0 0 0 0 0 0 0 0 0 0 0 0 0 0 0 0 0 0 0 0 0 0 0 0 0 0 0 0 0
0 0 0 0 0 0 0 0 0 0 0 0 0 0 0 0 0 0 0 0 0 0 0 0 0 0 0 0 0 0 0 0 0 0 0 0 0 0 0 0 0 0 0 0
0 0 0 0 0 0 0 0 0 0 0 0 0 0 0 0 0 0 0 0 0 0 0 0 0 0 0 0 0 0 0 0 0 0 0 0 0 0 0 0 0 0 0 0
0 0 0 0 0 0 0 0 0 0 0 0 0 0 0 0 0 0 0 0 0 0 0 0 0 0 0 0 0 0 0 0 0 0 0 0 0 0 0 0 0 0 0 0
0 0 0 0 0 0 0 0 0 0 0 0 0 0 0 0 0 0 0 0 0 0 0 0 0 0 0 0 0 0 0 0 0 0 0 0 0 0 0 0 0 0 0 0
0 0 0 0 0 0 0 0 0 0 0 0 0 0 0 0 0 0 0 0 0 0 0 0 0 0 0 0 0 0 0 0 0 0 0 0 0 0 0 0 0 0 0 0
0 0 0 0 0 0 0 0 0 0 0 0 0 0 0 0 0 0 0 0 0 0 0 0 0 0 0 0 0 0 0 0 0 0 0 0 0 0 0 0 0 0 0 0
0 0 0 0 0 0 0 0 0 0 0 0 0 0 0 0 0 0 0 0 0 0 0 0 0 0 0 0 0 0 0 0 0 0 0 0 0 0 0 0 0 0 0 0
0 0 0 0 0 0 0 0 0 0 0 0 0 0 0 0 0 0 0 0 0 0 0 0 0 0 0 0 0 0 0 0 0 0 0 0 0 0 0 0 0 0 0 0
0 0 0 0 0 0 0 0 0 0 0 0 0 0 0 0 0 0 0 0 0 0 0 0 0 0 0 0 0 0 0 0 0 0 0 0 0 0 0 0 0 0 0 0
0 0 0 0 0 0 0 0 0 0 0 0 0 0 0 0 0 0 0 0 0 0 0 0 0 0 0 0 0 0 0 0 0 0 0 0 0 0 0 0 0 0 0 0
0 0 0 0 0 0 0 0 0 0 0 0 0 0 0 0 0 0 0 0 0 0 0 0 0 0 0 0 0 0 0 0 0 0 0 0 0 0 0 0 0 0 0 0
0 0 0 0 0 0 0 0 0 0 0 0 0 0 0 0 0 0 0 0 0 0 0 0 0 0 0 0 0 0 0 0 0 0 0 0 0 0 0 0 0 0 0 0
0 0 0 -0 0 0 0 0 0 0 0 0 0 0 0 0 0 0 0 0 0 0 0 0 0 0 0 0 0 0 0 0 0 0 0 0 0 0 0 0 0 0 0 0
0 0 0 0 0 0 0 0 0 0 0 0 0 0 0 0 0 0 0 0 0 0 0 0 0 0 0 0 0 0 0 0 0 0 0 0 0 0 0 0 0 0 0 0
0 0 0 0 0 0 0 0 0 0 0 -0 -0 0 0 0 0 0 0 0 0 0 0 0 0 0 0 0 0 0 0 0 0 0 0 0 0 0 0 0 0 0 0 0
0 0 0 0 0 0 0 0 0 0 0 -0 -0 -0 0 0 0 0 0 0 0 0 0 0 0 0 0 0 0 0 0 0 0 0 0 0 0 0 0 0 0 0 0 0
0 0 0 0 0 0 0 0 0 -0 -0 -0 -0 0 0 0 0 0 0 0 0 0 0 0 0 0 0 0 0 0 0 0 0 0 0 0 0 0 0 0 0 0 0 0
0 0 0 0 0 0 0 -0 -0 -0 -0 -0 -0 0 0 0 0 0 0 0 0 0 0 0 0 0 0 0 0 0 0 0 0 0 0 0 0 0 0 0 0 0 0 0
0 0 0 0 0 0 0 -0 -0 -0 -0 -0 -0 0 0 0 0 0 0 0 0 0 0 0 0 0 0 0 0 0 0 0 0 0 0 0 0 0 0 0 0 0 0 0
Wind_Speed
4 5 4 5 4 2 5 8 7 7 9 10 10 9 9 8 7 6 5 4 4 3 3 3 4 4 4 4 4 4 4 5 6 7 6 6 6 7 7 7 8 7 7 8
5 7 8 7 5 1 3 5 6 8 5 6 6 5 5 6 7 6 5 4 3 3 3 4 4 4 4 4 4 4 5 6 6 6 6 6 7 7 7 7 7 7 8 8
4 7 6 4 3 2 2 3 8 7 7 6 5 6 7 7 7 6 5 4 3 3 4 4 4 4 4 4 4 4 5 6 6 6 7 7 7 7 7 8 7 8 8 8
0 5 3 9 5 5 7 3 5 7 7 8 7 6 5 7 7 6 5 4 3 3 4 3 3 3 3 3 4 5 6 6 6 6 7 8 7 8 8 7 7 8 8 9
3 1 6 7 4 3 6 3 3 8 8 7 6 4 2 5 6 7 6 5 5 4 3 3 3 3 3 4 5 5 6 6 7 7 8 8 8 9 8 7 8 8 8 9
4 3 5 8 4 4 9 1 3 7 8 8 8 2 5 6 6 6 5 4 3 3 2 2 4 3 3 5 5 6 6 7 7 7 8 9 9 9 8 7 8 8 8 8
4 5 8 7 4 3 2 8 8 8 8 8 7 7 6 6 6 6 5 4 4 2 2 4 4 3 4 5 6 7 6 6 7 7 8 9 8 7 8 8 8 7 8 8
3 2 8 6 3 5 9 6 7 8 8 8 8 6 7 8 7 6 5 4 3 2 3 4 4 2 4 6 7 6 6 6 8 8 8 9 8 9 8 7 8 7 7 7
7 9 10 7 8 8 8 8 8 9 8 9 8 8 8 8 7 6 5 4 3 3 3 4 4 3 5 6 6 5 6 7 8 9 8 8 8 9 8 7 6 6 5 5
3 8 7 7 6 5 8 9 9 9 10 10 9 9 8 7 6 5 5 4 3 2 3 4 4 4 5 5 4 4 6 7 7 8 9 8 7 6 6 7 6 6 5 5
4 7 5 4 5 6 6 7 8 8 9 11 11 9 9 8 7 7 5 4 3 3 4 5 4 4 5 4 3 5 6 7 7 7 8 8 8 7 7 7 7 7 6 5
7 8 6 7 7 6 8 9 11 10 9 9 10 10 10 9 8 7 6 5 4 4 4 4 4 4 5 4 3 4 6 6 6 7 7 7 8 9 10 10 11 11 10 7
9 8 7 6 5 7 9 10 11 11 11 10 9 10 10 8 7 7 6 6 5 5 5 4 4 4 4 4 3 4 6 7 6 6 7 7 7 7 9 9 9 8 8 8
7 4 1 2 3 5 7 9 9 8 9 11 10 8 9 8 7 7 7 7 6 5 4 4 4 4 4 3 4 5 6 8 8 6 7 7 7 7 6 7 7 6 5 5
5 3 3 2 0 1 2 3 4 5 7 8 8 8 9 9 9 8 7 6 5 4 4 4 4 5 4 3 4 5 5 5 6 6 6 6 7 6 6 6 5 5 4 3
3 7 7 7 5 4 3 2 2 4 6 7 8 9 10 10 8 7 6 6 5 5 5 4 4 4 3 3 4 4 5 10 10 7 7 6 6 6 5 5 5 4 4 3
13 12 10 10 9 8 6 4 2 2 4 6 8 8 8 8 7 6 6 6 7 6 6 5 4 3 3 3 3 3 4 7 12 8 6 6 6 6 5 5 5 5 4 3
13 12 11 11 10 10 11 10 8 5 1 3 4 6 8 8 9 9 9 7 5 4 5 5 4 3 3 2 2 2 3 5 5 6 6 6 6 5 5 4 5 5 4 4
16 15 15 15 13 12 12 11 10 8 5 2 3 5 7 8 9 8 7 6 6 6 6 5 6 3 2 2 1 2 4 5 6 6 5 7 7 5 4 4 4 4 4 4
14 13 14 14 14 12 12 11 10 8 6 3 1 3 5 7 7 7 7 7 7 6 6 6 5 3 2 2 3 3 4 5 5 6 5 5 5 5 5 4 4 4 4 4
12 12 12 12 11 11 10 10 9 8 7 5 5 6 7 7 7 6 5 6 6 6 6 7 4 3 2 2 3 3 3 4 4 4 5 5 5 5 5 4 4 4 4 4
8 9 10 10 10 10 9 9 9 9 9 8 8 7 7 7 6 6 6 6 5 8 5 4 4 4 2 1 1 2 3 3 3 4 4 4 4 5 5 5 4 4 4 4
7 7 8 9 9 9 10 9 9 9 9 8 8 8 8 7 5 5 6 4 4 8 6 4 6 6 3 1 1 2 2 3 3 4 4 5 4 4 4 5 4 4 4 4
8 8 9 8 8 7 9 10 9 8 8 8 8 7 7 6 5 5 4 6 9 10 6 7 10 6 3 1 0 1 1 2 3 4 5 5 4 4 4 4 4 5 5 5
9 8 8 8 7 6 7 7 7 7 7 7 8 8 6 4 5 4 3 6 10 10 5 7 8 6 3 2 1 1 2 2 3 4 4 5 5 4 4 4 4 5 5 5
8 7 7 6 5 4 4 3 3 4 5 6 7 7 6 5 3 1 2 5 8 8 6 4 4 4 3 3 3 3 3 3 4 4 5 5 5 5 5 5 7 5 5 5
7 6 4 5 5 4 3 3 3 4 5 5 6 7 7 5 3 1 3 4 5 5 5 5 5 5 5 4 4 4 3 3 3 4 4 5 5 5 5 6 5 5 5 5
Wind_Direction
249 273 309 296 274 194 155 170 162 180 174 197 195 187 187 183 175 161 165 172 176 194 230 255 267 269 267 271 277 277 282 282 278 276 277 276 276 274 273 268 268 260 259 259
327 319 329 322 307 195 152 143 132 133 178 206 188 169 173 174 161 160 172 173 174 193 238 266 272 269 270 276 279 281 285 284 282 286 289 285 282 281 281 275 271 268 263 261
296 315 353 318 277 135 124 136 147 165 187 172 163 177 182 173 165 170 174 176 193 225 248 263 264 256 263 268 279 290 290 289 292 293 292 288 289 291 285 280 275 274 269 264
235 9 321 260 269 117 97 58 122 130 151 165 171 173 178 178 171 174 178 188 215 237 253 260 258 263 263 279 292 296 297 296 295 295 294 293 291 287 283 278 277 275 274 269
133 211 279 296 301 143 118 66 137 136 149 155 145 112 255 211 180 180 187 196 213 224 228 248 267 268 279 295 299 300 297 297 296 296 297 298 295 290 285 283 282 277 273 272
156 186 239 251 255 133 99 132 216 155 158 160 149 138 250 215 181 181 187 194 206 218 227 263 271 272 288 294 297 293 288 290 294 295 295 295 292 288 285 282 280 281 279 274
195 218 255 241 224 102 123 228 205 175 169 162 171 196 208 179 181 186 187 192 184 188 237 260 268 274 286 290 285 278 282 291 297 297 295 292 289 288 290 290 289 285 284 281
174 197 258 243 187 178 211 199 180 174 172 169 182 183 166 170 181 183 180 181 177 199 258 271 270 266 282 284 277 283 290 297 299 299 300 307 300 297 295 291 290 289 288 288
185 213 232 224 209 207 172 171 182 176 178 165 163 168 171 178 182 185 183 192 200 213 263 282 275 258 272 278 284 294 301 301 301 303 302 300 298 298 301 296 288 288 284 283
266 269 258 247 232 201 180 180 180 173 171 165 166 171 172 175 183 187 194 200 206 223 269 282 280 273 262 274 285 297 301 302 301 305 306 307 302 294 294 294 291 287 283 280
297 289 311 291 230 200 185 172 169 171 173 171 165 169 173 179 187 192 197 205 200 213 246 264 274 276 275 276 289 300 301 300 303 302 302 306 303 295 291 282 272 272 273 264
240 245 220 244 238 195 174 179 178 175 179 178 170 173 172 180 186 187 192 195 200 218 236 257 266 272 276 272 280 297 302 304 304 306 306 304 305 307 300 289 287 275 260 252
229 234 212 234 229 197 187 188 184 180 179 181 180 173 170 176 183 183 186 189 199 213 227 244 260 270 272 272 284 292 292 297 301 302 304 305 304 305 309 311 305 292 279 260
238 208 212 252 239 213 193 191 185 186 186 180 176 172 168 167 170 179 190 197 196 202 219 235 248 263 267 273 290 297 297 299 301 296 299 301 300 300 299 302 312 314 301 275
252 200 195 227 343 195 169 158 165 190 191 187 177 170 169 169 176 187 192 189 182 199 226 235 248 264 269 277 292 297 300 299 300 297 298 296 298 300 299 301 302 305 308 306
22 41 44 44 38 22 28 52 171 212 202 189 182 181 178 173 174 178 182 177 178 212 230 230 240 250 260 280 294 298 298 306 311 302 300 303 305 306 306 306 307 306 304 293
48 34 26 26 22 19 13 2 321 240 209 194 192 177 163 158 163 178 193 199 199 209 212 207 222 233 257 276 283 289 297 306 312 310 302 302 305 305 304 307 308 305 299 286
53 47 42 35 26 17 8 2 356 355 330 211 166 150 157 169 184 195 201 200 202 219 212 204 201 223 263 273 271 285 294 295 298 301 302 306 308 304 305 311 315 315 312 308
39 35 32 28 23 18 12 5 0 359 1 56 128 172 189 197 201 201 196 189 201 220 223 205 200 213 250 258 292 295 297 298 302 304 305 313 318 317 315 319 320 320 317 315
30 25 21 16 14 11 4 357 355 355 349 342 278 220 220 223 216 205 195 203 214 210 194 186 186 199 216 258 314 296 295 297 302 309 312 317 318 321 322 325 329 332 332 328
16 10 6 1 355 353 349 344 341 332 320 303 270 249 243 242 229 208 199 223 231 197 181 177 169 176 203 267 308 296 299 307 313 314 318 318 321 324 325 329 335 336 335 333
357 350 344 339 335 330 326 325 322 316 310 301 288 274 263 256 245 231 221 218 204 180 170 161 162 182 200 269 297 302 313 327 329 325 326 325 326 329 331 333 336 335 336 335
329 322 318 315 311 307 309 311 310 307 299 292 285 277 267 258 239 223 237 225 177 173 165 167 176 181 179 149 302 318 337 353 347 336 330 326 326 332 335 338 336 332 331 338
314 309 305 303 309 314 310 306 306 306 302 297 291 285 279 277 268 242 221 183 174 171 171 174 177 175 156 133 68 11 14 12 355 338 333 333 339 346 347 346 344 343 348 356
303 302 304 311 314 306 302 310 320 325 325 322 316 312 307 289 260 245 203 177 170 163 160 174 177 164 137 108 84 69 49 31 13 354 346 345 347 351 352 353 354 352 356 2
294 293 290 288 283 285 297 313 321 321 325 327 323 321 320 317 300 220 170 166 163 161 154 154 157 148 121 107 88 73 53 28 20 9 354 349 351 354 355 358 0 5 7 11
291 294 298 304 300 297 301 311 316 313 314 316 315 315 315 313 310 266 172 162 159 154 143 133 125 115 108 100 87 69 48 31 20 10 359 355 353 352 356 3 8 12 11 13